Home   Weather   Seljaküla   Past weeks
Flag for Estonia

Past Weather in Seljaküla, Estonia — Yesterday and Last 2 Weeks

Now
56 °F

Overcast.


Feels Like: 55 °F
Forecast: 64 / 55 °F
Wind: 6 mph from West

Location: Laane-Nigula
Current Time: Sep 22, 2020 at 9:03:46 am
Latest Report: Sep 22, 2020 at 8:00 am
Visibility: 13 mi
Pressure29.77 "Hg
Humidity: 82%
Dew Point: 51 °F
Location of SeljakülaLocation

Past Weather in Seljaküla — Graph

°F

Seljaküla Temperature Yesterday

Maximum temperature yesterday: 60 °F (at 3:00 pm)
Minimum temperature yesterday: 49 °F (at 7:00 am)
Average temperature yesterday: 55 °F

High & Low Weather Summary for the Past Weeks

 TemperatureHumidityPressure
High69 °F (Sep 16, 3:00 pm)100% (Sep 7, 7:00 am)30.21 "Hg (Sep 7, 7:00 am)
Low36 °F (Sep 20, 6:00 am)54% (Sep 18, 3:00 pm)29.41 "Hg (Sep 10, 1:00 am)
Average55 °F84%29.92 "Hg
* Reported Sep 7 7:00 am — Sep 22 7:00 am, Seljaküla. Weather by CustomWeather, © 2020

Note: Actual official high and low records may vary slightly from our data, if they occured in-between our weather recording intervals... More about our weather records

Seljaküla Weather History for the Previous 24 Hours

Scroll right to see more
 ConditionsComfort  
Time TempWeatherWind HumidityBarometerVisibility
7:00 am
Tue, Sep 22
56 °FOvercast.6 mph83%29.76 "Hg12 mi
6:00 am57 °FOvercast.7 mph86%29.75 "Hg12 mi
5:00 am57 °FOvercast.7 mph89%29.75 "Hg12 mi
4:00 am56 °FLow clouds.5 mph94%29.75 "Hg12 mi
3:00 am55 °FPassing clouds.6 mph94%29.75 "Hg12 mi
2:00 am55 °FOvercast.6 mph93%29.78 "Hg12 mi
1:00 am54 °FClear.7 mph92%29.78 "Hg12 mi
12:00 am53 °FClear.6 mph96%29.80 "Hg12 mi
11:00 pm
Mon, Sep 21
54 °FClear.7 mph92%29.80 "Hg12 mi
10:00 pm54 °FClear.6 mph91%29.82 "Hg12 mi
9:00 pm55 °FPassing clouds.7 mph91%29.83 "Hg12 mi
8:00 pm55 °FClear.6 mph90%29.85 "Hg12 mi
7:00 pm57 °FSunny.6 mph87%29.87 "Hg12 mi
5:00 pm59 °FSunny.6 mph84%29.91 "Hg12 mi
4:00 pm59 °FSunny.6 mph84%29.93 "Hg12 mi
3:00 pm60 °FPartly sunny.9 mph82%29.93 "Hg12 mi
2:00 pm59 °FOvercast.8 mph84%29.95 "Hg12 mi
1:00 pm59 °FOvercast.7 mph82%29.96 "Hg12 mi
12:00 pm59 °FOvercast.7 mph83%29.96 "Hg12 mi
11:00 am58 °FOvercast.6 mph88%29.97 "Hg12 mi
10:00 am56 °FOvercast.5 mph92%29.96 "Hg12 mi
9:00 am54 °FOvercast.2 mph97%29.97 "Hg12 mi
Weather by CustomWeather, © 2020

See weather overview